SAUDISAT 5A (43831 NORAD) Tracking and Keplerian Element Data

This shows tracking and keplerian element data for the satellite.

Feedback or suggestion? Click here.




ElementValue
Catalog43831
NameSAUDISAT 5A
Epoch Orbit2556
Epoch Day145.80039303
Epoch Year2019
RAAN221.667
Inclination97.6045
Eccentricity0.0015889
Argument of Perigee49.3214
Mean Anonmoly94.9779
Mean Motion15.07877749
Decay Rate-3.1E-06
L11 43831U 18102A 19145.80039303 -.00000310 00000-0 -16058-4 0 9997
L22 43831 97.6045 221.6670 0015889 49.3214 94.9779 15.07877749 25568

Live tracking and technical data element details for SAUDISAT 5A (NORAD 43831). SAUDISAT 5A can be tracked NOW for your location showing map with azimuth and elevation plus other details from your city location.

Track the satellite on the map from your city or location and see movement details for azimuth, elevation, latitude, longitude, range, height, and movement on the map or in text.







IsCatalogInMostPopularTable: catalog: 43831, numindb: 65
Update: records affected: 1



GetName: 43831 SAUDISAT 5A

Hit Count: updated at: Sun, 26 May 2019 09:26:56 GMT